• In France
  • List of Countries
  • For 7 days
  • Water Temperature
  • Satellite Maps
  • Weather Map
  • Weather Widgets
  • user-avatar
    Login

    Hourly Weather Yola

    Today, 18 September, Tuesday

    Time Temperature Precipitation Wind Pressure Humidity
    00:00 +31°C° 0 mm 3 mps 738 mmHg 60%
    01:00 +30°C° 0 mm 3 mps 738 mmHg 62%
    02:00 +30°C° 0 mm 3 mps 738 mmHg 64%
    03:00 +30°C° 0 mm 3 mps 738 mmHg 66%
    04:00 +29°C° 0 mm 3 mps 738 mmHg 68%
    05:00 +29°C° 0 mm 3 mps 738 mmHg 69%
    06:00 +29°C° 0 mm 3 mps 738 mmHg 71%
    07:00 +30°C° 0 mm 3 mps 739 mmHg 65%
    08:00 +33°C° 0 mm 4 mps 739 mmHg 59%
    09:00 +35°C° 0 mm 4 mps 739 mmHg 53%
    10:00 +36°C° 0 mm 4 mps 739 mmHg 49%
    11:00 +38°C° 0 mm 3 mps 739 mmHg 44%
    12:00 +38°C° 0 mm 2 mps 738 mmHg 42%
    13:00 +39°C° 0 mm 2 mps 738 mmHg 39%
    14:00 +40°C° 0 mm 1 mps 737 mmHg 36%
    15:00 +37°C° 0 mm 0 mps 737 mmHg 33%
    16:00 +39°C° 0 mm 1 mps 737 mmHg 35%
    17:00 +37°C° 0 mm 1 mps 737 mmHg 37%
    18:00 +37°C° 0 mm 2 mps 736 mmHg 39%
    19:00 +36°C° 0 mm 2 mps 737 mmHg 41%
    20:00 +36°C° 0 mm 3 mps 738 mmHg 44%
    21:00 +35°C° 0 mm 3 mps 738 mmHg 46%
    22:00 +35°C° 0 mm 4 mps 738 mmHg 50%
    23:00 +34°C° 0 mm 4 mps 738 mmHg 54%

    Tomorrow, 19 September, Wednesday

    Time Temperature Precipitation Wind Pressure Humidity
    00:00 +33°C° 0 mm 4 mps 738 mmHg 58%
    01:00 +32°C° 0 mm 4 mps 738 mmHg 62%
    02:00 +32°C° 0 mm 4 mps 737 mmHg 66%
    03:00 +30°C° 0 mm 4 mps 737 mmHg 70%
    04:00 +30°C° 0 mm 4 mps 737 mmHg 72%
    05:00 +29°C° 0 mm 4 mps 738 mmHg 74%
    06:00 +29°C° 0 mm 4 mps 738 mmHg 75%
    07:00 +30°C° 0 mm 4 mps 739 mmHg 70%
    08:00 +33°C° 0 mm 4 mps 739 mmHg 65%
    09:00 +34°C° 0 mm 4 mps 740 mmHg 60%
    10:00 +35°C° 0 mm 4 mps 739 mmHg 55%
    11:00 +37°C° 0 mm 3 mps 739 mmHg 50%
    12:00 +38°C° 0 mm 2 mps 739 mmHg 45%
    13:00 +39°C° 0 mm 2 mps 738 mmHg 42%
    14:00 +39°C° 0 mm 2 mps 737 mmHg 38%
    15:00 +40°C° 0 mm 1 mps 737 mmHg 35%
    16:00 +39°C° 0 mm 1 mps 737 mmHg 37%
    17:00 +38°C° 0 mm 2 mps 737 mmHg 39%
    18:00 +37°C° 0 mm 2 mps 737 mmHg 42%
    19:00 +36°C° 0 mm 3 mps 737 mmHg 45%
    20:00 +36°C° 0 mm 3 mps 738 mmHg 48%
    21:00 +35°C° 0 mm 4 mps 739 mmHg 52%
    22:00 +34°C° 0.3 mm 4 mps 739 mmHg 58%
    23:00 +33°C° 0.3 mm 4 mps 738 mmHg 64%

    Day after tomorrow, 20 September, Thursday

    Time Temperature Precipitation Wind Pressure Humidity
    00:00 +32°C° 0.3 mm 5 mps 738 mmHg 70%
    01:00 +30°C° 0 mm 4 mps 738 mmHg 71%
    02:00 +30°C° 0 mm 4 mps 738 mmHg 72%
    03:00 +30°C° 0 mm 4 mps 737 mmHg 73%
    04:00 +30°C° 0 mm 4 mps 738 mmHg 74%
    05:00 +30°C° 0 mm 4 mps 738 mmHg 74%
    06:00 +29°C° 0 mm 4 mps 738 mmHg 75%
    07:00 +32°C° 0 mm 4 mps 739 mmHg 69%
    08:00 +33°C° 0 mm 4 mps 739 mmHg 64%
    09:00 +34°C° 0 mm 4 mps 740 mmHg 59%
    10:00 +36°C° 0 mm 4 mps 740 mmHg 53%
    11:00 +37°C° 0 mm 4 mps 739 mmHg 48%
    12:00 +40°C° 0 mm 4 mps 739 mmHg 43%
    13:00 +39°C° 0 mm 3 mps 738 mmHg 40%
    14:00 +40°C° 0 mm 2 mps 737 mmHg 37%
    15:00 +40°C° 0 mm 1 mps 736 mmHg 35%
    16:00 +39°C° 0 mm 1 mps 736 mmHg 37%
    17:00 +37°C° 0 mm 1 mps 736 mmHg 39%
    18:00 +36°C° 0 mm 1 mps 737 mmHg 41%
    19:00 +37°C° 0.3 mm 2 mps 737 mmHg 43%
    20:00 +36°C° 0.3 mm 2 mps 738 mmHg 46%
    21:00 +35°C° 0.3 mm 3 mps 738 mmHg 49%
    22:00 +34°C° 0.1 mm 3 mps 738 mmHg 52%
    23:00 +34°C° 0.1 mm 3 mps 738 mmHg 55%

    21 September, Friday

    Time Temperature Precipitation Wind Pressure Humidity
    00:00 +33°C° 0.1 mm 3 mps 737 mmHg 58%
    01:00 +32°C° 0.4 mm 4 mps 737 mmHg 61%
    02:00 +32°C° 0.4 mm 4 mps 737 mmHg 64%
    03:00 +30°C° 0.4 mm 4 mps 736 mmHg 67%
    04:00 +30°C° 2.1 mm 4 mps 737 mmHg 70%
    05:00 +29°C° 2.1 mm 4 mps 737 mmHg 72%
    06:00 +29°C° 2.1 mm 4 mps 738 mmHg 74%
    07:00 +30°C° 0 mm 5 mps 738 mmHg 69%
    08:00 +32°C° 0 mm 5 mps 739 mmHg 63%
    09:00 +33°C° 0 mm 6 mps 740 mmHg 58%
    10:00 +34°C° 0 mm 5 mps 739 mmHg 54%
    11:00 +35°C° 0 mm 5 mps 739 mmHg 50%
    12:00 +36°C° 0 mm 4 mps 738 mmHg 45%
    13:00 +37°C° 0 mm 4 mps 738 mmHg 44%
    14:00 +37°C° 0 mm 3 mps 737 mmHg 43%
    15:00 +37°C° 0 mm 3 mps 736 mmHg 41%
    16:00 +36°C° 0 mm 3 mps 736 mmHg 44%
    17:00 +35°C° 0 mm 3 mps 736 mmHg 47%
    18:00 +34°C° 0 mm 4 mps 736 mmHg 50%
    19:00 +34°C° 0 mm 3 mps 737 mmHg 54%
    20:00 +33°C° 0 mm 3 mps 738 mmHg 57%
    21:00 +33°C° 0 mm 3 mps 739 mmHg 60%
    22:00 +32°C° 0 mm 4 mps 739 mmHg 63%
    23:00 +32°C° 0 mm 5 mps 738 mmHg 65%

    22 September, Saturday

    Time Temperature Precipitation Wind Pressure Humidity
    00:00 +30°C° 0 mm 6 mps 738 mmHg 68%
    01:00 +30°C° 0 mm 6 mps 738 mmHg 70%
    02:00 +30°C° 0 mm 5 mps 737 mmHg 71%
    03:00 +29°C° 0 mm 5 mps 737 mmHg 73%
    04:00 +29°C° 0.7 mm 4 mps 738 mmHg 74%
    05:00 +29°C° 0.7 mm 4 mps 738 mmHg 76%
    06:00 +28°C° 0.7 mm 3 mps 739 mmHg 78%
    07:00 +30°C° 0 mm 3 mps 739 mmHg 71%
    08:00 +32°C° 0 mm 4 mps 740 mmHg 64%
    09:00 +33°C° 0 mm 4 mps 740 mmHg 57%
    10:00 +35°C° 0 mm 4 mps 740 mmHg 53%
    11:00 +36°C° 0 mm 4 mps 739 mmHg 48%
    12:00 +37°C° 0 mm 4 mps 739 mmHg 43%
    13:00 +38°C° 0 mm 4 mps 738 mmHg 42%
    14:00 +38°C° 0 mm 3 mps 737 mmHg 41%
    15:00 +38°C° 0 mm 3 mps 737 mmHg 39%
    16:00 +37°C° 0 mm 3 mps 737 mmHg 42%
    17:00 +36°C° 0 mm 3 mps 737 mmHg 44%
    18:00 +36°C° 0 mm 2 mps 737 mmHg 46%
    19:00 +35°C° 0 mm 3 mps 738 mmHg 48%
    20:00 +34°C° 0 mm 3 mps 738 mmHg 51%
    21:00 +34°C° 0 mm 3 mps 738 mmHg 53%
    22:00 +33°C° 0 mm 4 mps 738 mmHg 58%
    23:00 +32°C° 0 mm 5 mps 738 mmHg 63%

    23 September, Sunday

    Time Temperature Precipitation Wind Pressure Humidity
    00:00 +30°C° 0 mm 5 mps 738 mmHg 68%
    01:00 +30°C° 0 mm 5 mps 737 mmHg 69%
    02:00 +29°C° 0 mm 5 mps 737 mmHg 70%
    03:00 +29°C° 0 mm 4 mps 737 mmHg 71%
    04:00 +28°C° 0 mm 4 mps 738 mmHg 72%
    05:00 +28°C° 0 mm 4 mps 738 mmHg 72%
    06:00 +28°C° 0 mm 3 mps 739 mmHg 73%
    07:00 +29°C° 0.3 mm 4 mps 739 mmHg 69%
    08:00 +30°C° 0.3 mm 6 mps 740 mmHg 66%
    09:00 +32°C° 0.3 mm 7 mps 740 mmHg 63%
    10:00 +34°C° 0 mm 6 mps 739 mmHg 57%
    11:00 +35°C° 0 mm 6 mps 739 mmHg 52%
    12:00 +38°C° 0 mm 6 mps 738 mmHg 47%
    13:00 +37°C° 0 mm 5 mps 738 mmHg 45%
    14:00 +39°C° 0 mm 5 mps 737 mmHg 42%
    15:00 +40°C° 0 mm 4 mps 736 mmHg 40%
    16:00 +38°C° 0 mm 4 mps 737 mmHg 43%
    17:00 +37°C° 0 mm 4 mps 737 mmHg 47%
    18:00 +35°C° 0 mm 3 mps 737 mmHg 50%
    19:00 +35°C° 0.3 mm 4 mps 738 mmHg 53%
    20:00 +34°C° 0.3 mm 5 mps 738 mmHg 56%
    21:00 +33°C° 0.3 mm 5 mps 739 mmHg 59%
    22:00 +33°C° 0 mm 5 mps 738 mmHg 62%
    23:00 +32°C° 0 mm 5 mps 738 mmHg 65%
    Show more